This is the latest recevied weather packets stored in our database for station/object KC0RPY. If no packets are shown the sender has not sent any weather packets the latest 10 day(s).
| Time | Temp. | Humidity | Pressure | Rain* | Wind** | Luminosity | Snow |
|---|---|---|---|---|---|---|---|
| 1777731712 | 10° C | 63% | 1023 hPa | 0 mm | - | 396 W/m² | - |
| 1777731409 | 9.44° C | 65% | 1022.6 hPa | 0 mm | - | 365 W/m² | - |
| 1777731107 | 9.44° C | 66% | 1023 hPa | 0 mm | - | 340 W/m² | - |
| 1777730805 | 9.44° C | 67% | 1023 hPa | 0 mm | - | 306 W/m² | - |
| 1777730502 | 8.89° C | 66% | 1022.6 hPa | 0 mm | - | 319 W/m² | - |
| 1777730198 | 8.33° C | 67% | 1022.6 hPa | 0 mm | - | 290 W/m² | - |
| 1777729895 | 7.78° C | 67% | 1023 hPa | 0 mm | - | 281 W/m² | - |
| 1777729591 | 7.78° C | 69% | 1023 hPa | 0 mm | - | 266 W/m² | - |
| 1777729288 | 7.22° C | 69% | 1022.6 hPa | 0 mm | - | 235 W/m² | - |
| 1777728985 | 7.22° C | 68% | 1023 hPa | 0 mm | - | 118 W/m² | - |
| 1777728681 | 6.67° C | 69% | 1022.6 hPa | 0 mm | - | 182 W/m² | - |
| 1777728378 | 6.67° C | 69% | 1022.6 hPa | 0 mm | - | 83 W/m² | - |
| 1777728076 | 6.67° C | 70% | 1022.6 hPa | 0 mm | - | 60 W/m² | - |
| 1777727772 | 6.67° C | 70% | 1022.6 hPa | 0 mm | - | 54 W/m² | - |
| 1777727470 | 6.11° C | 71% | 1022.6 hPa | 0 mm | - | 52 W/m² | - |
| 1777727167 | 6.11° C | 71% | 1022.6 hPa | 0 mm | - | 52 W/m² | - |
| 1777726865 | 6.11° C | 72% | 1022.6 hPa | 0 mm | - | 50 W/m² | - |
| 1777726560 | 5.56° C | 73% | 1022.6 hPa | 0 mm | - | 50 W/m² | - |
| 1777726258 | 5.56° C | 72% | 1022.6 hPa | 0 mm | - | 45 W/m² | - |
| 1777725954 | 5.56° C | 72% | 1022.3 hPa | 0 mm | - | 56 W/m² | - |
| 1777725652 | 5° C | 72% | 1022.3 hPa | 0 mm | - | 46 W/m² | - |
| 1777725350 | 5° C | 74% | 1022.3 hPa | 0 mm | - | 40 W/m² | - |
| 1777725046 | 5° C | 74% | 1022.3 hPa | 0 mm | - | 37 W/m² | - |
| 1777724743 | 4.44° C | 74% | 1022.3 hPa | 0 mm | - | 35 W/m² | - |
| 1777724440 | 4.44° C | 74% | 1022.3 hPa | 0 mm | - | 32 W/m² | - |
* Rain latest hour (hover to see other rain measurements)
** Current wind speed in m/s (hover to see current wind gust speed)